GW2509 Weather Reports


Display with metric or nautical units.
time (UTC)temp
F
wind
direction
speed
MPH
gust
MPH
rain 1hr
in
rain 24hr
in
rain mn
in
humidity
%
barometer
mb
20260503223941 60 189 7.0 10.0 0.00 0.00 0.00 52 1010.4
20260503223439 60 224 9.0 10.0 0.00 0.00 0.00 52 1010.2
20260503222934 60 223 6.0 14.0 0.00 0.00 0.00 50 1010.1
20260503222433 60 208 7.0 11.0 0.00 0.00 0.00 49 1010.0
20260503221931 60 222 7.0 14.0 0.00 0.00 0.00 48 1010.1
20260503221429 60 164 9.0 15.0 0.00 0.00 0.00 49 1010.5
20260503220925 60 206 6.0 13.0 0.00 0.00 0.00 49 1010.2
20260503220421 60 226 9.0 13.0 0.00 0.00 0.00 49 1010.4
20260503215919 60 163 6.0 9.0 0.00 0.00 0.00 49 1010.0
20260503215416 60 215 14.0 19.0 0.00 0.00 0.00 47 1009.8
20260503214913 60 183 5.0 16.0 0.00 0.00 0.00 50 1009.9
20260503214411 60 212 10.0 19.0 0.00 0.00 0.00 49 1010.5
20260503213908 60 194 11.0 17.0 0.00 0.00 0.00 50 1010.5
20260503213406 60 138 4.0 15.0 0.00 0.00 0.00 50 1010.4
20260503212902 60 142 9.0 13.0 0.00 0.00 0.00 50 1010.4
20260503212400 60 186 9.0 13.0 0.00 0.00 0.00 50 1010.5
20260503211857 60 196 10.0 15.0 0.00 0.00 0.00 49 1011.0
20260503211354 60 210 9.0 11.0 0.00 0.00 0.00 49 1011.1
20260503210848 60 208 12.0 17.0 0.00 0.00 0.00 49 1011.3
20260503210346 60 163 6.0 13.0 0.00 0.00 0.00 49 1011.1
20260503205841 61 197 6.0 17.0 0.00 0.00 0.00 48 1011.3
20260503205338 60 209 11.0 17.0 0.00 0.00 0.00 46 1011.4
20260503204834 60 192 5.0 13.0 0.00 0.00 0.00 48 1011.6
20260503204332 61 170 10.0 16.0 0.00 0.00 0.00 45 1011.4
20260503203829 61 198 11.0 14.0 0.00 0.00 0.00 46 1011.7
20260503203326 61 184 9.0 18.0 0.00 0.00 0.00 44 1011.8
20260503202823 61 193 10.0 14.0 0.00 0.00 0.00 44 1011.6
20260503202321 62 203 10.0 18.0 0.00 0.00 0.00 43 1011.8
20260503201819 62 192 9.0 16.0 0.00 0.00 0.00 44 1012.3
20260503201316 62 248 11.0 22.0 0.00 0.00 0.00 43 1012.7
20260503200814 62 230 13.0 26.0 0.00 0.00 0.00 43 1012.5
20260503200309 62 213 12.0 18.0 0.00 0.00 0.00 44 1012.6
20260503195807 61 189 6.0 23.0 0.00 0.00 0.00 44 1012.8
20260503195304 62 228 9.0 16.0 0.00 0.00 0.00 42 1013.0
20260503194800 61 236 13.0 19.0 0.00 0.00 0.00 44 1013.7
20260503194256 61 194 9.0 21.0 0.00 0.00 0.00 45 1013.7
20260503193753 61 203 12.0 14.0 0.00 0.00 0.00 45 1013.8
20260503193249 61 231 10.0 15.0 0.00 0.00 0.00 44 1014.0
20260503192745 62 208 11.0 19.0 0.00 0.00 0.00 43 1014.0
20260503192240 62 192 8.0 18.0 0.00 0.00 0.00 44 1013.9
20260503191737 62 240 15.0 23.0 0.00 0.00 0.00 43 1013.9
20260503191234 61 206 6.0 19.0 0.00 0.00 0.00 45 1014.1
20260503190731 61 204 17.0 22.0 0.00 0.00 0.00 43 1014.0
20260503190227 61 178 9.0 15.0 0.00 0.00 0.00 45 1014.0
20260503185725 61 226 15.0 18.0 0.00 0.00 0.00 43 1014.1
20260503185220 61 237 18.0 24.0 0.00 0.00 0.00 42 1014.2
20260503184715 61 185 16.0 26.0 0.00 0.00 0.00 42 1014.2
20260503184212 61 244 13.0 24.0 0.00 0.00 0.00 43 1014.1
20260503183708 62 196 16.0 23.0 0.00 0.00 0.00 43 1014.0
20260503183205 62 226 12.0 14.0 0.00 0.00 0.00 44 1014.1
20260503182704 61 225 15.0 21.0 0.00 0.00 0.00 46 1014.3
20260503182202 62 216 23.0 26.0 0.00 0.00 0.00 43 1014.4
20260503181658 61 231 8.0 16.0 0.00 0.00 0.00 46 1014.6
20260503181155 60 208 15.0 21.0 0.00 0.00 0.00 46 1014.4
20260503180651 61 238 9.0 14.0 0.00 0.00 0.00 45 1014.5
20260503180150 61 224 13.0 22.0 0.00 0.00 0.00 45 1014.8
20260503175647 61 233 12.0 18.0 0.00 0.00 0.00 45 1014.9
20260503175144 61 191 11.0 24.0 0.00 0.00 0.00 45 1015.1
20260503174640 60 230 11.0 24.0 0.00 0.00 0.00 47 1015.3
20260503174137 60 220 15.0 22.0 0.00 0.00 0.00 46 1015.7
20260503173632 61 215 14.0 23.0 0.00 0.00 0.00 45 1015.4
20260503173129 60 185 13.0 22.0 0.00 0.00 0.00 46 1015.6
20260503172626 60 226 21.0 23.0 0.00 0.00 0.00 45 1016.0
20260503172124 60 216 15.0 19.0 0.00 0.00 0.00 47 1015.9
20260503171620 60 230 19.0 21.0 0.00 0.00 0.00 46 1016.1
20260503171117 60 192 13.0 19.0 0.00 0.00 0.00 45 1016.0
20260503170614 60 219 20.0 24.0 0.00 0.00 0.00 46 1016.1
20260503170111 60 225 11.0 15.0 0.00 0.00 0.00 47 1016.3
20260503151006 57 255 12.0 22.0 0.00 0.00 0.00 53 1017.7
20260503150502 57 199 10.0 14.0 0.00 0.00 0.00 52 1017.7
20260503131355 49 206 8.0 13.0 0.00 0.00 0.00 64 1018.0
20260503130853 49 215 8.0 10.0 0.00 0.00 0.00 65 1018.0
20260503130350 48 199 3.0 10.0 0.00 0.00 0.00 65 1018.0
20260503110744 39 185 2.0 3.0 0.00 0.00 0.00 76 1017.8
20260503110241 38 166 1.0 3.0 0.00 0.00 0.00 77 1017.7
20260503100207 38 157 1.0 1.0 0.00 0.00 0.00 77 1017.5
20260503090131 40 206 2.0 6.0 0.00 0.00 0.00 73 1017.8
20260503081602 39 179 1.0 1.0 0.00 0.00 0.00 74 1017.7
20260503081059 39 190 1.0 1.0 0.00 0.00 0.00 74 1017.5
20260503080554 39 190 1.0 1.0 0.00 0.00 0.00 74 1017.9
20260503072529 38 177 0.0 1.0 0.00 0.00 0.00 76 1017.8
20260503072026 39 176 0.0 0.0 0.00 0.00 0.00 76 1017.9
20260503071522 39 176 1.0 1.0 0.00 0.00 0.00 76 1017.9
20260503071019 39 174 1.0 1.0 0.00 0.00 0.00 75 1017.8
20260503070516 39 153 0.0 1.0 0.00 0.00 0.00 75 1017.9
20260503054939 39 149 0.0 2.0 0.00 0.00 0.00 75 1018.0
20260503054436 39 142 0.0 0.0 0.00 0.00 0.00 75 1018.2
20260503053933 39 142 0.0 0.0 0.00 0.00 0.00 76 1018.4
20260503053431 39 142 0.0 0.0 0.00 0.00 0.00 78 1018.1
20260503052927 39 142 0.0 0.0 0.00 0.00 0.00 80 1018.2
20260503052425 39 142 0.0 0.0 0.00 0.00 0.00 84 1018.2
20260503051921 39 142 0.0 1.0 0.00 0.00 0.00 86 1018.1
20260503051417 39 142 1.0 1.0 0.00 0.00 0.00 87 1018.3
20260503050914 39 142 2.0 2.0 0.00 0.00 0.00 86 1018.1
20260503050410 39 142 1.0 2.0 0.00 0.00 0.00 86 1018.4
20260503045908 40 142 2.0 2.0 0.00 0.00 0.00 84 1018.3
20260503045405 40 142 1.0 1.0 0.00 0.00 0.00 81 1018.4
20260503044902 40 142 1.0 1.0 0.00 0.00 0.00 82 1018.3
20260503044359 40 142 1.0 1.0 0.00 0.00 0.00 82 1018.4
20260503043856 40 142 1.0 1.0 0.00 0.00 0.00 81 1018.3
20260503043353 40 142 1.0 1.0 0.00 0.00 0.00 81 1018.3
20260503042849 40 142 0.0 1.0 0.00 0.00 0.00 80 1018.2
20260503042346 40 142 1.0 1.0 0.00 0.00 0.00 78 1018.1
20260503041842 40 142 1.0 2.0 0.00 0.00 0.00 78 1018.3
20260503041339 40 143 0.0 0.0 0.00 0.00 0.00 77 1018.3
20260503040837 40 142 1.0 1.0 0.00 0.00 0.00 75 1018.2
20260503040334 40 139 1.0 1.0 0.00 0.00 0.00 77 1018.2
20260503035831 40 139 1.0 1.0 0.00 0.00 0.00 78 1018.4
20260503035328 40 139 1.0 1.0 0.00 0.00 0.00 80 1018.4
20260503034825 40 139 0.0 0.0 0.00 0.00 0.00 81 1018.3
20260503034323 41 139 0.0 0.0 0.00 0.00 0.00 79 1018.3
20260503033820 41 139 0.0 1.0 0.00 0.00 0.00 79 1018.4
20260503033317 41 139 1.0 1.0 0.00 0.00 0.00 78 1018.3
20260503032815 42 132 1.0 1.0 0.00 0.00 0.00 76 1018.2
20260503032314 42 132 1.0 1.0 0.00 0.00 0.00 75 1018.4
20260503031811 42 131 2.0 1.0 0.00 0.00 0.00 73 1018.2
20260503031309 42 150 1.0 1.0 0.00 0.00 0.00 72 1018.4
20260503030804 42 151 1.0 1.0 0.00 0.00 0.00 71 1018.2
20260503030301 42 203 1.0 1.0 0.00 0.00 0.00 71 1018.3
20260503025758 42 203 1.0 1.0 0.00 0.00 0.00 70 1018.2
20260503025255 42 205 1.0 1.0 0.00 0.00 0.00 69 1018.3
20260503024752 42 205 1.0 2.0 0.00 0.00 0.00 70 1018.3
20260503024249 42 204 1.0 1.0 0.00 0.00 0.00 70 1018.2
20260503023746 43 204 1.0 1.0 0.00 0.00 0.00 69 1018.2
20260503023243 43 204 1.0 1.0 0.00 0.00 0.00 66 1018.3
20260503022739 42 204 1.0 1.0 0.00 0.00 0.00 67 1018.2
20260503022239 42 204 1.0 0.0 0.00 0.00 0.00 70 1018.2
20260503021737 43 204 0.0 0.0 0.00 0.00 0.00 69 1018.3
20260503021232 43 204 1.0 1.0 0.00 0.00 0.00 67 1018.1
20260503020731 43 234 0.0 1.0 0.00 0.00 0.00 66 1018.3
20260503020228 44 234 0.0 0.0 0.00 0.00 0.00 62 1018.1
20260503015724 44 234 1.0 1.0 0.00 0.00 0.00 59 1018.2
20260503015221 44 234 1.0 1.0 0.00 0.00 0.00 62 1018.0
20260503014717 45 234 1.0 1.0 0.00 0.00 0.00 62 1017.9
20260503014215 45 234 0.0 1.0 0.00 0.00 0.00 57 1017.8
20260503013712 45 234 0.0 0.0 0.00 0.00 0.00 62 1018.0
20260503013210 46 234 0.0 1.0 0.00 0.00 0.00 60 1017.7
20260503012707 46 234 0.0 0.0 0.00 0.00 0.00 54 1017.9
20260503012204 46 234 0.0 0.0 0.00 0.00 0.00 52 1017.8
20260503011700 46 234 1.0 1.0 0.00 0.00 0.00 53 1017.6
20260503011157 46 234 1.0 1.0 0.00 0.00 0.00 53 1017.6
20260503010653 47 321 1.0 1.0 0.00 0.00 0.00 56 1017.7
20260503010151 47 5 0.0 0.0 0.00 0.00 0.00 47 1017.5
20260503005648 47 5 0.0 1.0 0.00 0.00 0.00 50 1017.7
20260503005145 49 4 0.0 0.0 0.00 0.00 0.00 53 1017.6
20260503004641 49 4 0.0 0.0 0.00 0.00 0.00 45 1017.7
20260503004140 50 4 0.0 0.0 0.00 0.00 0.00 43 1017.7
20260503003636 50 4 0.0 1.0 0.00 0.00 0.00 44 1017.5
20260503003133 51 4 0.0 0.0 0.00 0.00 0.00 44 1017.6
20260503002630 51 5 0.0 1.0 0.00 0.00 0.00 43 1017.6
20260503002127 52 355 2.0 2.0 0.00 0.00 0.00 40 1017.6
20260503001623 52 348 2.0 2.0 0.00 0.00 0.00 40 1017.5
20260503001120 52 4 1.0 2.0 0.00 0.00 0.00 39 1017.6
20260503000618 53 355 1.0 2.0 0.00 0.00 0.00 38 1017.5
20260503000115 53 356 2.0 3.0 0.00 0.00 0.00 37 1017.5
20260502235611 53 6 2.0 4.0 0.00 0.00 0.00 38 1017.4
20260502235110 53 7 2.0 4.0 0.00 0.00 0.00 39 1017.4
20260502234605 53 344 4.0 6.0 0.00 0.00 0.00 38 1017.5
20260502234103 52 335 3.0 6.0 0.00 0.00 0.00 38 1017.6
20260502233603 52 344 4.0 6.0 0.00 0.00 0.00 38 1017.5
20260502233101 52 15 2.0 4.0 0.00 0.00 0.00 40 1017.6
20260502232556 52 26 2.0 4.0 0.00 0.00 0.00 40 1017.6
20260502232054 53 23 6.0 8.0 0.00 0.00 0.00 39 1017.4
20260502231551 54 357 7.0 9.0 0.00 0.00 0.00 37 1017.6
20260502231049 54 26 4.0 7.0 0.00 0.00 0.00 37 1017.3
20260502230547 54 309 5.0 6.0 0.00 0.00 0.00 38 1017.4
20260502230045 54 335 5.0 9.0 0.00 0.00 0.00 38 1017.5
20260502225540 53 336 4.0 8.0 0.00 0.00 0.00 41 1017.5
20260502225037 53 309 4.0 6.0 0.00 0.00 0.00 38 1017.3
20260502224533 54 352 6.0 11.0 0.00 0.00 0.00 38 1017.5